Regional Weather Roundup
Issued by NWS Green Bay, WI

Home | Current Version | Previous Version | Text Only | Print | Product List | Glossary On
Versions: 1 2 3 4 5 6 7 8 9 10 11 12 13 14 15 16 17 18 19 20 21 22 23 24 25 26 27 28 29 30 31 32 33 34 35 36 37 38 39 40 41 42 43 44 45 46 47 48 49 50
000
ASUS43 KGRB 191010
RWRGRB

NORTH-CENTRAL AND NORTHEAST WISCONSIN REGIONAL WEATHER ROUNDUP
NATIONAL WEATHER SERVICE GREEN BAY WI
500 AM CDT SAT APR 19 2014

WIZ005-009-010>012-018-019-191100-
NORTH CENTRAL WISCONSIN

CITY           SKY/WX    TMP DP  RH WIND       PRES   REMARKS
IRONWOOD       CLOUDY    34  23  64 E10       30.29F
MANITOWISH WTR CLOUDY    31  24  76 SE7       30.34S
ARBOR VITAE    CLOUDY    32  25  74 SE10      30.36R
EAGLE RIVER    CLOUDY    31  23  74 SE3       30.37S
LAND O LAKES   CLOUDY    31  26  81 SE7       30.37S
RHINELANDER    CLOUDY    30  23  75 SE8       30.37R
PHILLIPS       MOCLDY    33  25  72 SE12G20   30.32F
ANTIGO         MOCLDY    29  25  86 SE8       30.39S
TOMAHAWK       CLOUDY    31  24  74 CALM      30.36F
MERRILL        MOCLDY    32  26  78 CALM      30.36F
$$

WIZ013-073-191100-
NORTHEAST WISCONSIN

CITY           SKY/WX    TMP DP  RH WIND       PRES   REMARKS
IRON MOUNTAIN  CLOUDY    26  24  92 SW3       30.42S
MARINETTE      PTCLDY    28  27  93 E3        30.45S
OCONTO         PTCLDY    29  27  90 CALM      30.44F
$$

WIZ017-030-035>037-045-191100-
CENTRAL WISCONSIN

CITY           SKY/WX    TMP DP  RH WIND       PRES   REMARKS
MEDFORD        PTCLDY    32  25  74 SE12G17   30.33S
WAUSAU         MOCLDY    32  26  78 E10       30.36F
MOSINEE        MOCLDY    32  28  86 E9        30.38F
MARSHFIELD     PTCLDY    33  26  75 SE9       30.35F
WISC RAPIDS    MOCLDY    32  25  75 E7        30.38F
STEVENS POINT  MOCLDY    30  25  81 E9        30.38F
WAUPACA        PTCLDY    34  27  75 E7        30.41F
SHAWANO        PTCLDY    31  28  86 NE6       30.43F
CLINTONVILLE   PTCLDY    32  28  86 E5        30.42F
$$

WIZ038-039-048-051-191100-
FOX VALLEY

CITY           SKY/WX    TMP DP  RH WIND       PRES   REMARKS
NWS GREEN BAY  PTCLDY    32  27  81 NE3       30.44S
APPLETON       PTCLDY    32  27  80 E6        30.41F
OSHKOSH        PTCLDY    34  27  75 E9        30.40F
FOND DU LAC    PTCLDY    33  25  72 E9        30.41R
$$

WIZ022-050-052-191100-
EAST CENTRAL WISCONSIN

CITY           SKY/WX    TMP DP  RH WIND       PRES   REMARKS
STURGEON BAY   PTCLDY    30  27  86 E3        30.46S
MANITOWOC      PTCLDY    31  29  92 E3        30.45R
SHEBOYGAN      CLEAR     32  27  81 E7        30.43S
$$

LMZ563-521-522-541>543-191100-
LAKESHORE

STATION/POSITION TIME  TEMP    WIND        PRES    VSBY  WAVE
                       AIR SEA DIR/SP/G                  HT/PER
                 (UTC) (F)     (DEG/KT/KT) (MB)    (MI)  (FT/S)
SHEBOYGAN LKSHOR 1000   35      70/ 11/ 13 1031.5R
KEWAUNEE LKSHORE 1000   33      80/  6/  8 1031.6S
NORTHPORT PIER   1000   32      90/  7/  8 1031.5S
SISTER BAY LKSHO 1000   31        CALM       N/A
MENOMINEE LKSHOR 1000   27     360/  4/  5 1031.8F
$$



USA.gov is the U.S. government's official web portal to all federal, state and local government web resources and services.